Location: Anciles
(42.5833°N, 0.5167°E)
Time: 04:35:17
(UTC+00:00)

USA 215 - Pass Details

Date: 10 December 2019
Orbit: 1099 x 1109 km, 123.0° (Epoch: 03 January)

Event Time Altitude Azimuth Distance (km) Brightness Sun altitude
Exits shadow 17:17:57 - 43° (NE) 3,108 5.1 -9.6°
Reaches altitude 10° 17:18:20 10° 42° (NE) 2,965 5.0 -9.7°
Maximum altitude 17:24:35 49° 330° (NNW) 1,388 3.9 -10.7°
Drops below altitude 10° 17:30:49 10° 258° (WSW) 2,962 7.0 -11.8°
Sets 17:33:22 0° 253° (WSW) 3,920 8.3 -12.3°
